Vertical_Velocity
-1 -4 -3 -3 -3 -2 -1 -0 -0 -0 -1 -1 0 -0 -0 -1 0 1 3 4 3 1
-1 -0 -3 -2 -6 -1 1 2 1 -0 -0 -0 -0 0 -0 1 1 -1 2 2 2 3
-3 -1 -6 -5 -6 -2 1 5 2 1 -2 -1 0 1 -0 0 2 2 2 1 3 1
-1 -1 -4 -4 -5 -6 1 5 2 1 0 -0 -0 1 -0 1 0 2 1 1 1 1
-1 -1 -4 -3 -1 -4 -3 3 3 1 0 1 1 1 3 2 1 2 3 3 2 2
-1 -1 -4 -2 -1 -4 -1 -2 1 1 3 2 2 1 -1 -1 -1 -1 2 1 1 -0
-1 -1 -0 -1 -2 -3 -0 -1 1 -1 0 1 2 1 -0 -1 -1 1 2 3 4 5
-0 -2 -1 -0 -2 -1 -0 -0 -1 0 1 1 4 1 -1 -1 -1 0 3 6 3 4
2 -1 -3 -1 -1 -2 0 1 -0 2 1 1 1 -3 -1 -0 2 1 3 2 -0 -1
-1 0 -1 1 -0 -2 -2 -1 1 1 2 2 1 -0 1 1 1 1 -0 -1 -0 1
0 -0 -1 0 1 -0 -2 -2 -1 0 -0 -0 -0 -2 -2 -0 1 2 3 3 3 1
1 -0 1 0 -2 1 -1 -2 -2 -2 -1 1 1 -1 -1 -0 -0 1 0 -1 0 -0
1 0 -1 2 -1 2 -0 -1 -1 -2 -2 -2 1 0 -2 -1 -0 1 3 3 3 3
1 1 0 1 1 0 1 -1 -1 -0 1 1 0 -1 -0 -0 -1 -0 -1 -1 -0 -1
Height
3033 3026 3018 3009 2998 2984 2976 2972 2970 2967 2964 2960 2956 2954 2951 2950 2950 2950 2952 2956 2961 2968
3030 3024 3018 3010 2999 2986 2975 2969 2966 2963 2960 2956 2953 2950 2948 2946 2946 2945 2945 2947 2951 2955
3029 3024 3018 3011 3002 2990 2979 2970 2964 2962 2959 2955 2952 2949 2946 2945 2944 2943 2942 2942 2943 2946
3028 3023 3018 3012 3004 2995 2984 2974 2966 2963 2960 2956 2953 2950 2947 2944 2943 2943 2941 2941 2941 2942
3027 3022 3017 3011 3005 2998 2990 2982 2974 2968 2963 2959 2955 2952 2949 2947 2945 2944 2942 2942 2942 2942
3026 3022 3018 3012 3006 3000 2994 2988 2982 2976 2971 2965 2960 2957 2954 2950 2948 2946 2944 2943 2943 2943
3026 3022 3018 3013 3008 3003 2998 2992 2986 2981 2977 2972 2968 2963 2959 2956 2953 2950 2948 2946 2944 2943
3024 3021 3018 3014 3009 3005 3000 2996 2990 2986 2981 2978 2975 2970 2966 2963 2960 2957 2954 2951 2949 2947
3023 3020 3018 3015 3010 3007 3003 2999 2994 2990 2985 2982 2979 2975 2972 2968 2965 2962 2960 2958 2955 2953
3022 3020 3018 3015 3011 3007 3005 3001 2998 2994 2990 2986 2983 2980 2976 2973 2970 2967 2965 2962 2960 2958
3021 3019 3017 3015 3012 3008 3005 3003 3000 2996 2992 2988 2986 2982 2980 2977 2975 2972 2969 2966 2964 2962
3019 3018 3017 3015 3013 3010 3006 3004 3001 2998 2995 2992 2988 2985 2983 2980 2978 2975 2972 2969 2966 2964
3017 3016 3015 3013 3012 3010 3007 3005 3002 2998 2996 2993 2990 2987 2985 2983 2980 2978 2975 2972 2969 2966
3015 3015 3013 3012 3011 3010 3007 3005 3003 3000 2998 2995 2991 2988 2986 2984 2981 2979 2976 2973 2970 2967